Location: Rio Negrinho
(26.2394°S, 49.4999°W)
Time: 18:34:15
(UTC+00:00)

Hubble Space Telescope - Pass Details

Date: 30 July 2021
Orbit: 535 x 539 km, 28.5° (Epoch: 22 September)

Event Time Altitude Azimuth Distance (km) Brightness Sun altitude
Exits shadow 09:10:48 15° 270° (W) 1,515 2.4 -11.0°
Maximum altitude 09:14:13 70° 187° (S) 576 0.8 -10.2°
Drops below altitude 10° 09:18:22 10° 103° (ESE) 1,797 4.5 -9.3°
Sets 09:20:39 0° 100° (E) 2,690 5.6 -8.8°
